Zurück zum Katalog

STARLINK-2610

AktivKommunikationVLEO
NORAD 48376·PAYLOAD·🇺🇸 United States

Gestartet May 4, 2021 von Cape Canaveral Space Force Station

Loading…

Nächste Überflüge (nächste 24 Stunden)

TLE

AktuellSource: CelesTrak SupGP

Epoche: Sep 15, 2026, 01:59 UTC

1 48376C 21038Z   26258.08312500  .00256730  00000+0  88745-3 0  2589
2 48376  53.1484 151.8177 0004779 130.2013 237.3314 15.88636025    10

Verfolge STARLINK-2610 in Echtzeit mit AllMySat

Download on the App Store